Location: Unspecified
(35.7250°N, 0.0000°E)
Time: 07:46:16
(UTC+00:00)

Vanguard 1 - Pass Details

Date: 30 June 2019
Orbit: 653 x 3830 km, 34.3° (Epoch: 22 July)

Event Time Altitude Azimuth Distance (km) Brightness Sun altitude
Rises 23:14:09 0° 230° (SW) 7,596 14.4 -30.0°
Reaches altitude 10° 23:19:08 10° 227° (SW) 6,765 14.0 -30.2°
Maximum altitude 23:42:04 62° 153° (SSE) 3,915 12.6 -30.9°
Drops below altitude 10° 23:59:52 10° 79° (E) 5,454 13.9 -31.1°
Sets 00:03:20 0° 76° (ENE) 6,125 14.3 -31.1°
